W1SCW Weather Reports


time (UTC)temp
F
wind
direction
speed
knots
gust
knots
rain 1hr
in
rain 24hr
in
rain mn
in
humidity
%
barometer
mb
20260505222655 84 152 2.6 6.1 0.00 0.00 0.00 75 1004.9
20260505222152 83 208 0.9 8.7 0.00 0.00 0.00 75 1005.3
20260505221649 84 176 4.3 9.6 0.00 0.00 0.00 74 1005.0
20260505221145 84 156 3.5 7.8 0.00 0.00 0.00 74 1005.0
20260505220643 84 141 1.7 6.1 0.00 0.00 0.00 74 1005.1
20260505220140 84 159 3.5 8.7 0.00 0.00 0.00 74 1005.4
20260505215638 84 304 2.6 7.0 0.00 0.00 0.00 75 1005.4
20260505215136 84 207 3.5 4.3 0.00 0.00 0.00 75 1005.3
20260505214634 84 178 3.5 15.6 0.00 0.00 0.00 75 1005.6
20260505214130 85 82 0.0 3.5 0.00 0.00 0.00 75 1005.6
20260505213628 84 158 5.2 6.1 0.00 0.00 0.00 74 1005.5
20260505213124 84 202 3.5 7.0 0.00 0.00 0.00 74 1005.7
20260505212620 84 178 3.5 8.7 0.00 0.00 0.00 75 1005.6
20260505212119 85 126 0.9 7.0 0.00 0.00 0.00 71 1005.7
20260505211615 86 149 3.5 7.8 0.00 0.00 0.00 72 1005.7
20260505211112 85 149 2.6 7.8 0.00 0.00 0.00 72 1005.7
20260505210609 85 204 3.5 7.8 0.00 0.00 0.00 72 1005.9
20260505210106 85 210 2.6 8.7 0.00 0.00 0.00 72 1005.9
20260505205603 85 167 7.0 13.0 0.00 0.00 0.00 71 1005.9
20260505205101 84 155 3.5 8.7 0.00 0.00 0.00 73 1006.0
20260505204558 85 142 3.5 9.6 0.00 0.00 0.00 72 1006.1
20260505204055 85 183 7.0 11.3 0.00 0.00 0.00 72 1006.2
20260505203551 85 175 7.0 9.6 0.00 0.00 0.00 71 1006.3
20260505203049 85 212 5.2 7.8 0.00 0.00 0.00 72 1006.3
20260505202545 85 146 1.7 8.7 0.00 0.00 0.00 72 1006.3
20260505202041 85 136 3.5 10.4 0.00 0.00 0.00 72 1006.4
20260505201538 86 205 3.5 9.6 0.00 0.00 0.00 71 1006.4
20260505201036 85 217 6.1 11.3 0.00 0.00 0.00 72 1006.7
20260505200533 84 177 3.5 7.0 0.00 0.00 0.00 73 1006.8
20260505200030 84 130 4.3 8.7 0.00 0.00 0.00 73 1006.9
20260505195526 84 158 3.5 6.1 0.00 0.00 0.00 74 1006.9
20260505195024 84 177 3.5 9.6 0.00 0.00 0.00 74 1006.7
20260505194515 84 149 5.2 9.6 0.00 0.00 0.00 73 1007.0
20260505194010 84 140 1.7 10.4 0.00 0.00 0.00 75 1007.0
20260505193508 83 209 5.2 9.6 0.00 0.00 0.00 75 1007.2
20260505193005 83 224 5.2 10.4 0.00 0.00 0.00 75 1007.0
20260505192504 83 213 2.6 8.7 0.00 0.00 0.00 74 1007.1
20260505192001 84 203 7.0 7.8 0.00 0.00 0.00 74 1007.1
20260505191459 84 162 5.2 8.7 0.00 0.00 0.00 73 1007.2
20260505190956 85 204 4.3 13.0 0.00 0.00 0.00 72 1007.1
20260505190451 85 195 3.5 7.8 0.00 0.00 0.00 73 1007.0
20260505185947 84 198 3.5 6.1 0.00 0.00 0.00 74 1007.2
20260505185444 84 159 7.0 10.4 0.00 0.00 0.00 74 1007.1
20260505184940 84 187 2.6 7.8 0.00 0.00 0.00 74 1007.4
20260505184437 84 220 1.7 7.8 0.00 0.00 0.00 75 1007.3
20260505183934 83 214 5.2 12.2 0.00 0.00 0.00 76 1007.4
20260505183431 82 172 3.5 5.2 0.00 0.00 0.00 77 1007.4
20260505182928 82 204 1.7 5.2 0.00 0.00 0.00 78 1007.4
20260505182425 81 166 2.6 6.1 0.00 0.00 0.00 79 1007.4
20260505181921 82 197 5.2 5.2 0.00 0.00 0.00 78 1007.3
20260505181419 82 216 1.7 6.1 0.00 0.00 0.00 78 1007.7
20260505180915 82 155 4.3 7.8 0.00 0.00 0.00 77 1007.4
20260505180411 82 198 1.7 7.0 0.00 0.00 0.00 78 1007.6
20260505175908 81 151 1.7 7.8 0.00 0.00 0.00 80 1007.5
20260505175405 80 180 2.6 8.7 0.00 0.00 0.00 80 1007.5
20260505174901 81 215 1.7 5.2 0.00 0.00 0.00 80 1007.7
20260505174359 81 239 1.7 6.1 0.00 0.00 0.00 79 1007.9
20260505173854 81 240 4.3 5.2 0.00 0.00 0.00 79 1007.9
20260505173351 81 193 1.7 7.0 0.00 0.00 0.00 79 1007.8
20260505172848 81 289 1.7 7.0 0.00 0.00 0.00 79 1007.9
20260505172346 81 236 3.5 6.1 0.00 0.00 0.00 80 1008.1
20260505171845 80 202 3.5 6.1 0.00 0.00 0.00 81 1007.9
20260505171342 80 162 2.6 7.8 0.00 0.00 0.00 82 1008.0
20260505170839 80 184 3.5 6.1 0.00 0.00 0.00 81 1008.2
20260505170336 80 235 0.9 7.8 0.00 0.00 0.00 81 1008.1
20260505165831 80 185 3.5 10.4 0.00 0.00 0.00 82 1007.8
20260505165327 80 261 2.6 5.2 0.00 0.00 0.00 83 1008.1
20260505164823 79 158 3.5 4.3 0.00 0.00 0.00 85 1008.1
20260505164320 78 256 3.5 4.3 0.00 0.00 0.00 86 1008.2
20260505163818 78 164 1.7 5.2 0.00 0.00 0.00 86 1008.0
20260505163316 79 198 6.1 9.6 0.00 0.00 0.00 84 1008.0
20260505162814 79 221 3.5 9.6 0.00 0.00 0.00 83 1008.0
20260505162310 79 189 1.7 7.8 0.00 0.00 0.00 83 1008.0
20260505161808 79 198 4.3 7.0 0.00 0.00 0.00 82 1008.0
20260505161305 79 214 2.6 8.7 0.00 0.00 0.00 83 1008.1
20260505160802 79 192 1.7 7.8 0.00 0.00 0.00 83 1008.0
20260505160300 79 173 4.3 5.2 0.00 0.00 0.00 83 1008.0
20260505153238 78 137 1.7 4.3 0.00 0.00 0.00 85 1007.9
20260505152735 77 177 3.5 5.2 0.00 0.00 0.00 87 1007.8
20260505152231 77 154 3.5 7.0 0.00 0.00 0.00 87 1007.7
20260505151726 77 190 4.3 7.8 0.00 0.00 0.00 88 1007.7
20260505151224 77 200 3.5 4.3 0.00 0.00 0.00 88 1007.8
20260505150720 76 179 2.6 4.3 0.00 0.00 0.00 87 1007.8
20260505150218 76 201 1.7 4.3 0.00 0.00 0.00 88 1007.7
20260505140645 77 179 2.6 7.8 0.00 0.00 0.00 88 1007.4
20260505140143 76 177 2.6 8.7 0.00 0.00 0.00 88 1007.3
20260505130106 73 188 5.2 5.2 0.00 0.00 0.00 93 1007.4
20260505124556 73 171 2.6 4.3 0.00 0.00 0.00 94 1007.3
20260505124052 72 174 1.7 4.3 0.00 0.00 0.00 94 1007.2
20260505123548 72 225 2.6 3.5 0.00 0.00 0.00 94 1007.3
20260505123045 72 300 0.0 3.5 0.00 0.00 0.00 94 1007.3
20260505122542 72 201 1.7 3.5 0.00 0.00 0.00 95 1007.2
20260505122038 72 195 1.7 2.6 0.00 0.00 0.00 95 1006.9
20260505121535 71 163 1.7 3.5 0.00 0.00 0.00 95 1007.2
20260505121032 71 209 1.7 2.6 0.00 0.00 0.00 96 1007.2
20260505120528 71 144 0.9 2.6 0.00 0.00 0.00 96 1007.1
20260505120023 71 268 0.9 1.7 0.00 0.00 0.00 96 1006.9
20260505115518 71 196 3.5 4.3 0.00 0.00 0.00 96 1006.9
20260505115016 71 170 1.7 4.3 0.00 0.00 0.00 96 1006.8
20260505114513 71 158 1.7 3.5 0.00 0.00 0.00 96 1006.7
20260505114009 71 299 0.9 2.6 0.00 0.00 0.00 95 1006.7
20260505113507 71 164 0.0 2.6 0.00 0.00 0.00 95 1006.9
20260505113003 71 203 3.5 4.3 0.00 0.00 0.00 96 1007.2
20260505112459 71 193 3.5 3.5 0.00 0.00 0.00 95 1007.2
20260505111956 71 195 1.7 3.5 0.00 0.00 0.00 96 1007.0
20260505111456 70 183 2.6 3.5 0.00 0.00 0.00 96 1006.9
20260505110952 70 211 1.7 2.6 0.00 0.00 0.00 96 1006.9
20260505110449 70 187 2.6 2.6 0.00 0.00 0.00 96 1006.8
20260505101915 70 196 1.7 3.5 0.00 0.00 0.00 94 1007.2
20260505101414 70 205 1.7 3.5 0.00 0.00 0.00 94 1007.0
20260505100911 71 163 1.7 4.3 0.00 0.00 0.00 94 1006.7
20260505100408 71 154 0.9 3.5 0.00 0.00 0.00 94 1007.0
20260505095903 71 196 1.7 4.3 0.00 0.00 0.00 94 1006.9
20260505095400 71 199 2.6 3.5 0.00 0.00 0.00 93 1007.4
20260505094857 71 193 0.9 4.3 0.00 0.00 0.00 93 1007.1
20260505094355 71 287 0.0 2.6 0.00 0.00 0.00 93 1007.2
20260505093850 71 180 2.6 3.5 0.00 0.00 0.00 93 1006.9
20260505093347 71 180 2.6 3.5 0.00 0.00 0.00 93 1007.1
20260505092845 71 199 2.6 4.3 0.00 0.00 0.00 93 1006.9
20260505092342 71 190 2.6 4.3 0.00 0.00 0.00 93 1007.0
20260505091839 70 206 1.7 2.6 0.00 0.00 0.00 93 1007.2
20260505091337 70 217 2.6 4.3 0.00 0.00 0.00 93 1007.2
20260505090834 70 168 0.0 3.5 0.00 0.00 0.00 93 1007.3
20260505090333 70 237 0.0 5.2 0.00 0.00 0.00 93 1007.4
20260505085830 70 245 0.0 2.6 0.00 0.00 0.00 93 1007.4
20260505085328 70 188 1.7 3.5 0.00 0.00 0.00 93 1007.3
20260505084825 70 186 1.7 2.6 0.00 0.00 0.00 93 1007.4
20260505084324 70 216 0.0 2.6 0.00 0.00 0.00 93 1007.3
20260505083820 70 178 2.6 4.3 0.00 0.00 0.00 93 1007.5
20260505083318 70 210 1.7 3.5 0.00 0.00 0.00 93 1007.5
20260505082814 70 186 1.7 2.6 0.00 0.00 0.00 93 1007.6
20260505082311 70 238 0.9 3.5 0.00 0.00 0.00 93 1007.6
20260505081807 70 192 2.6 3.5 0.00 0.00 0.00 92 1007.7
20260505081304 70 190 1.7 3.5 0.00 0.00 0.00 92 1007.7
20260505080800 70 225 0.9 4.3 0.00 0.00 0.00 92 1007.6
20260505080256 70 173 1.7 3.5 0.00 0.00 0.00 92 1007.6
20260505075752 70 180 0.9 3.5 0.00 0.00 0.00 91 1007.8
20260505075249 70 187 1.7 3.5 0.00 0.00 0.00 91 1007.9
20260505074747 70 126 0.0 2.6 0.00 0.00 0.00 91 1007.8
20260505074243 70 196 1.7 3.5 0.00 0.00 0.00 91 1007.9
20260505073741 71 157 3.5 6.1 0.00 0.00 0.00 90 1007.8
20260505073238 70 172 0.9 4.3 0.00 0.00 0.00 90 1007.9
20260505072735 70 175 2.6 4.3 0.00 0.00 0.00 90 1007.9
20260505072231 70 197 2.6 5.2 0.00 0.00 0.00 90 1008.0
20260505071727 70 179 3.5 4.3 0.00 0.00 0.00 90 1008.0
20260505071224 71 179 1.7 4.3 0.00 0.00 0.00 90 1007.9
20260505070722 71 193 1.7 4.3 0.00 0.00 0.00 90 1008.1
20260505070218 71 162 2.6 5.2 0.00 0.00 0.00 89 1008.1
20260505065714 71 188 0.9 6.1 0.00 0.00 0.00 89 1008.0
20260505065211 71 171 2.6 4.3 0.00 0.00 0.00 89 1008.1
20260505064708 71 187 3.5 6.1 0.00 0.00 0.00 89 1008.2
20260505064206 71 173 2.6 5.2 0.00 0.00 0.00 89 1008.4
20260505063703 71 182 2.6 3.5 0.00 0.00 0.00 89 1008.5
20260505063159 71 198 3.5 3.5 0.00 0.00 0.00 88 1008.3
20260505062655 71 150 3.5 4.3 0.00 0.00 0.00 88 1008.3
20260505062153 71 174 1.7 4.3 0.00 0.00 0.00 88 1008.4
20260505061650 71 180 1.7 5.2 0.00 0.00 0.00 88 1008.5
20260505061148 71 149 0.0 3.5 0.00 0.00 0.00 88 1008.6
20260505060645 71 115 0.0 5.2 0.00 0.00 0.00 88 1008.9
20260505060142 71 193 3.5 3.5 0.00 0.00 0.00 88 1008.8
20260505055637 71 182 2.6 5.2 0.00 0.00 0.00 87 1008.7
20260505055134 71 144 3.5 4.3 0.00 0.00 0.00 87 1008.7
20260505054631 71 206 1.7 3.5 0.00 0.00 0.00 87 1008.6
20260505054129 71 186 2.6 3.5 0.00 0.00 0.00 87 1008.8
20260505053626 71 48 0.0 2.6 0.00 0.00 0.00 87 1008.6
20260505053122 71 201 0.0 3.5 0.00 0.00 0.00 86 1009.0
20260505052620 71 217 0.9 4.3 0.00 0.00 0.00 86 1008.7
20260505052117 71 190 0.9 4.3 0.00 0.00 0.00 86 1009.2
20260505051614 71 299 0.0 1.7 0.00 0.00 0.00 86 1009.0
20260505051112 71 168 4.3 4.3 0.00 0.00 0.00 86 1009.1
20260505050610 71 149 3.5 5.2 0.00 0.00 0.00 85 1009.1
20260505050108 71 177 3.5 5.2 0.00 0.00 0.00 85 1009.3
20260505041537 72 187 6.1 9.6 0.00 0.00 0.00 83 1009.2
20260505041035 72 162 5.2 7.8 0.00 0.00 0.00 83 1009.2
20260505040532 72 173 5.2 7.8 0.00 0.00 0.00 83 1009.0
20260505040029 72 160 5.2 6.1 0.00 0.00 0.00 82 1009.3
20260505035525 72 179 1.7 6.1 0.00 0.00 0.00 82 1009.4
20260505035022 72 23 0.0 4.3 0.00 0.00 0.00 82 1009.4
20260505034518 72 169 7.0 7.8 0.00 0.00 0.00 82 1009.3
20260505034016 72 163 2.6 5.2 0.00 0.00 0.00 81 1009.4
20260505033513 72 185 0.9 4.3 0.00 0.00 0.00 81 1009.4
20260505033011 73 210 1.7 5.2 0.00 0.00 0.00 81 1009.5
20260505032508 73 184 3.5 7.8 0.00 0.00 0.00 80 1009.6
20260505032004 73 173 2.6 7.8 0.00 0.00 0.00 80 1009.6
20260505031501 73 164 4.3 5.2 0.00 0.00 0.00 80 1009.6
20260505030958 73 171 5.2 7.8 0.00 0.00 0.00 80 1009.4
20260505030454 73 178 3.5 7.8 0.00 0.00 0.00 79 1009.3
20260505025949 73 155 1.7 6.1 0.00 0.00 0.00 79 1009.4
20260505025447 73 162 1.7 7.0 0.00 0.00 0.00 79 1009.4
20260505024946 74 164 4.3 6.1 0.00 0.00 0.00 78 1009.5
20260505024442 74 164 2.6 7.8 0.00 0.00 0.00 78 1009.5
20260505023940 74 173 2.6 4.3 0.00 0.00 0.00 78 1009.7
20260505023437 74 350 1.7 4.3 0.00 0.00 0.00 78 1009.3
20260505022934 74 153 2.6 4.3 0.00 0.00 0.00 78 1009.2
20260505022432 74 169 4.3 7.0 0.00 0.00 0.00 77 1009.4
20260505021928 74 168 2.6 7.8 0.00 0.00 0.00 77 1009.4
20260505021425 74 159 4.3 5.2 0.00 0.00 0.00 77 1009.3
20260505020920 74 175 1.7 8.7 0.00 0.00 0.00 76 1009.2
20260505020416 74 169 3.5 7.0 0.00 0.00 0.00 76 1009.3
20260505015913 74 161 3.5 7.8 0.00 0.00 0.00 76 1008.9
20260505015411 75 182 4.3 8.7 0.00 0.00 0.00 76 1009.1
20260505014908 75 173 4.3 9.6 0.00 0.00 0.00 75 1009.2
20260505014404 75 153 2.6 7.0 0.00 0.00 0.00 75 1009.0
20260505013901 75 159 2.6 6.1 0.00 0.00 0.00 75 1009.0
20260505013358 75 177 1.7 5.2 0.00 0.00 0.00 75 1008.9
20260505012856 75 175 4.3 7.8 0.00 0.00 0.00 75 1008.8
20260505012354 75 170 1.7 8.7 0.00 0.00 0.00 74 1009.0
20260505011850 75 193 2.6 8.7 0.00 0.00 0.00 74 1008.8
20260505011347 75 177 3.5 6.1 0.00 0.00 0.00 74 1008.6
20260505010843 75 182 1.7 7.0 0.00 0.00 0.00 74 1008.9
20260505010339 76 155 7.0 7.8 0.00 0.00 0.00 73 1008.8
20260505005835 76 147 1.7 5.2 0.00 0.00 0.00 73 1008.9
20260505005332 76 201 0.0 3.5 0.00 0.00 0.00 73 1008.6
20260505004830 76 140 2.6 6.1 0.00 0.00 0.00 73 1008.7
20260505004326 76 169 4.3 6.1 0.00 0.00 0.00 72 1008.8
20260505003823 76 151 3.5 8.7 0.00 0.00 0.00 72 1008.7
20260505003321 77 150 1.7 5.2 0.00 0.00 0.00 72 1008.6
20260505002816 77 160 0.0 4.3 0.00 0.00 0.00 72 1008.6
20260505002314 77 157 5.2 7.8 0.00 0.00 0.00 72 1008.5
20260505001812 77 158 5.2 7.0 0.00 0.00 0.00 71 1008.9
20260505001309 77 139 2.6 7.0 0.00 0.00 0.00 70 1008.9
20260505000806 78 171 4.3 5.2 0.00 0.00 0.00 70 1008.7
20260505000304 77 179 3.5 5.2 0.00 0.00 0.00 70 1008.8
20260504235800 77 179 4.3 6.1 0.00 0.00 0.00 71 1008.7
20260504235256 77 116 5.2 7.8 0.00 0.00 0.00 70 1008.5
20260504234754 77 185 4.3 7.0 0.00 0.00 0.00 70 1008.8
20260504234251 78 241 0.9 7.0 0.00 0.00 0.00 69 1009.0
20260504233747 78 170 2.6 9.6 0.00 0.00 0.00 69 1009.0
20260504233243 78 150 2.6 4.3 0.00 0.00 0.00 69 1009.1
20260504232740 78 138 2.6 9.6 0.00 0.00 0.00 69 1009.0
20260504232237 78 158 7.8 11.3 0.00 0.00 0.00 68 1009.2
20260504231734 78 181 3.5 7.8 0.00 0.00 0.00 68 1009.1
20260504231230 78 158 6.1 7.8 0.00 0.00 0.00 68 1009.2
20260504230726 79 181 1.7 7.0 0.00 0.00 0.00 67 1008.9
20260504230225 79 185 1.7 9.6 0.00 0.00 0.00 67 1009.2
20260504225724 79 177 3.5 5.2 0.00 0.00 0.00 67 1009.2
20260504225219 79 187 1.7 5.2 0.00 0.00 0.00 67 1009.2
20260504224717 79 144 5.2 11.3 0.00 0.00 0.00 67 1009.4
20260504224214 80 135 2.6 7.8 0.00 0.00 0.00 65 1009.4
20260504223710 80 187 2.6 7.0 0.00 0.00 0.00 65 1009.5
20260504223206 80 144 1.7 7.8 0.00 0.00 0.00 64 1009.5